Wind_Speed
9 9 9 9 9 9 9 9 9 9 9 8 9 9 9 9 9 9 9 10 10 10 10 10 10 11 11 11 11 11 10 10 11 11 10 11 12 11 10 11 14 18 22 25 26 25 23 22 23 22 21 21 20 18 16 15 16 16 17 16 15 14 14 14 14 13 13 13 13 14 14 14 13 14 15 15 14 14 17 19 19 18 18 18 18
10 10 10 10 10 10 10 10 10 10 10 9 9 9 9 10 10 10 10 10 11 11 11 11 11 11 11 11 11 11 11 10 10 11 11 10 11 12 11 10 12 16 18 22 24 24 24 23 24 24 22 21 21 20 17 16 16 17 17 16 16 15 15 14 14 14 14 13 13 14 14 13 14 15 15 15 14 14 17 19 19 20 20 19 19
11 11 11 11 11 11 11 11 11 10 10 10 10 10 10 11 11 11 11 11 12 12 12 12 12 12 12 12 12 12 12 11 11 11 11 11 12 12 12 12 13 15 17 19 20 21 24 25 26 25 24 23 22 21 19 17 16 16 17 17 17 16 16 15 15 15 15 14 14 14 13 14 15 15 15 14 14 15 17 18 19 21 21 20 19
12 12 12 12 12 11 11 11 11 11 11 11 11 11 11 11 12 12 12 13 13 13 13 13 13 12 12 12 13 13 12 12 12 12 11 11 12 13 12 12 13 14 16 17 18 20 23 25 28 27 25 24 23 22 20 18 17 17 18 18 18 17 17 16 15 15 15 15 15 15 14 15 15 15 15 15 15 16 17 19 20 21 21 21 20
13 13 13 13 13 12 12 12 12 13 13 13 12 12 12 12 13 13 13 14 14 15 15 15 14 14 14 13 13 13 13 13 13 13 12 11 12 13 12 12 13 14 14 15 17 20 22 24 28 28 26 25 24 23 21 20 18 18 18 18 18 18 17 17 16 15 15 15 16 16 15 15 14 14 14 15 16 17 18 19 20 21 21 21 21
12 12 12 13 13 13 14 14 14 15 15 15 14 14 13 13 13 14 14 14 15 15 16 15 15 15 15 15 14 14 13 13 14 13 13 12 12 12 12 12 12 13 14 15 16 18 20 22 25 27 26 25 26 25 23 21 19 18 19 19 18 19 18 17 16 15 15 15 15 16 16 15 15 14 14 15 16 17 18 19 20 22 22 21 21
12 12 12 12 13 14 14 15 15 16 16 16 16 16 15 15 14 14 14 14 15 16 16 16 16 16 16 16 15 15 15 15 14 14 14 13 11 11 11 12 13 13 14 16 16 16 18 21 24 26 26 27 27 26 24 23 21 19 19 20 20 19 20 18 17 16 15 15 15 17 17 16 15 15 14 16 16 17 19 19 20 22 22 21 21
15 14 14 14 14 14 14 15 15 15 15 16 16 17 17 17 16 16 15 15 14 15 16 17 17 16 16 17 16 15 16 16 16 15 15 14 12 11 10 11 13 13 13 14 16 16 16 18 22 25 26 27 29 28 26 25 24 21 20 20 20 21 20 19 19 17 16 15 15 17 18 17 16 15 15 16 16 17 19 19 20 21 21 21 22
17 17 16 16 16 16 16 15 15 15 15 15 15 16 16 17 17 17 17 16 16 15 15 16 17 17 17 17 16 16 16 16 17 17 17 16 15 13 11 11 13 13 13 13 14 15 16 17 19 23 26 27 29 30 28 26 25 23 21 21 21 21 21 20 20 18 17 16 16 18 19 18 17 16 16 16 16 16 18 19 20 20 21 21 21
19 19 19 18 18 18 18 17 16 16 16 15 15 15 15 16 17 17 17 17 17 17 16 16 17 18 18 17 16 16 15 16 17 18 18 18 16 15 13 12 13 13 13 14 14 14 15 16 16 18 23 26 28 30 29 28 26 25 23 22 21 21 21 21 20 20 18 17 17 18 20 19 18 17 16 16 16 16 17 19 20 20 21 21 21
20 20 20 20 20 20 20 19 18 17 17 16 16 16 16 16 16 16 17 17 17 18 18 17 17 18 19 18 17 16 15 16 17 17 17 17 17 16 15 13 13 13 13 14 15 14 14 15 14 14 18 23 26 28 30 29 27 25 23 23 23 22 22 21 21 21 19 18 18 19 21 20 19 17 17 17 16 16 17 18 20 21 21 21 22
20 20 21 21 21 21 21 21 20 19 19 18 17 17 17 16 16 17 17 17 17 18 19 19 19 19 19 20 18 17 16 17 17 17 17 17 17 17 16 14 13 14 13 13 14 15 16 15 13 14 15 19 24 27 29 29 28 27 25 24 25 24 22 21 22 21 20 19 18 19 22 22 20 19 18 18 17 16 17 18 19 20 21 21 22
20 19 20 21 20 20 21 21 20 20 20 20 19 19 18 18 18 19 19 19 18 19 20 20 20 20 20 20 20 19 18 18 18 18 18 18 18 17 17 15 13 13 13 14 14 15 16 15 14 14 15 17 21 26 28 28 29 28 27 27 26 24 23 22 22 22 21 20 19 19 23 24 22 20 19 19 17 16 17 17 17 20 22 22 22
18 18 20 21 21 21 21 21 20 20 21 21 20 20 20 20 21 21 21 21 21 20 20 20 21 21 21 21 21 21 21 20 19 19 19 19 18 18 17 16 15 14 14 14 14 15 15 16 15 15 15 15 17 23 27 27 29 30 29 28 26 25 24 23 23 23 23 22 20 20 23 24 23 21 20 19 18 17 17 17 17 20 21 22 23
18 18 20 21 22 22 22 22 21 21 21 22 22 22 22 22 22 22 23 23 23 22 22 22 21 21 21 21 21 22 22 22 21 20 19 19 19 17 17 18 17 16 16 15 15 16 16 16 15 14 14 14 13 18 25 27 28 30 29 28 27 26 25 24 24 25 24 23 21 20 22 24 23 21 20 20 19 18 18 18 17 19 21 22 23
19 20 21 22 23 23 23 23 22 22 22 22 23 23 23 23 24 24 24 25 24 24 23 23 22 22 22 22 22 23 23 23 22 22 21 20 20 18 18 19 19 17 16 16 16 17 16 16 15 12 13 14 13 13 20 27 29 29 29 29 28 27 26 26 26 26 26 24 22 21 22 23 23 22 20 20 20 19 19 18 18 19 20 21 22
21 22 22 23 23 24 24 24 24 23 23 23 23 24 24 24 25 25 26 26 27 26 25 24 24 23 22 22 23 23 23 23 23 23 23 22 21 20 19 19 19 17 17 18 17 17 17 17 16 14 12 13 14 14 15 23 29 29 30 30 29 28 27 27 27 27 27 25 23 22 22 23 24 23 22 21 21 20 19 19 19 19 20 20 21
23 23 24 24 24 25 25 25 25 25 24 24 24 24 25 25 26 26 27 27 28 28 27 27 26 25 24 24 24 24 23 23 23 23 23 23 23 22 21 20 20 18 17 18 18 18 17 16 16 16 14 12 14 15 14 17 25 30 31 31 30 29 28 29 29 28 27 26 24 23 23 23 25 24 23 22 22 21 20 20 20 20 19 20 21
25 25 26 26 27 27 27 28 28 28 27 27 26 26 26 26 27 27 28 28 28 29 29 29 28 27 26 26 25 25 25 24 24 23 23 23 24 24 23 22 22 20 18 18 18 18 18 17 17 16 15 15 15 15 14 14 19 28 31 30 30 30 29 30 30 29 28 27 26 25 24 24 25 25 24 23 23 22 22 21 21 20 20 20 21
27 29 29 30 30 30 30 30 30 30 30 30 29 28 27 27 28 28 29 29 29 29 29 29 29 29 28 28 27 26 26 26 25 24 24 23 23 25 24 23 23 22 20 19 18 18 19 18 18 17 16 16 16 15 15 13 14 21 27 31 32 31 30 31 31 31 30 29 27 26 26 26 25 25 24 24 23 23 23 22 21 21 21 21 22
32 33 33 33 34 33 32 32 31 31 31 31 30 30 29 29 29 29 29 30 30 30 30 30 30 30 30 29 29 28 28 27 26 25 25 24 24 24 24 23 24 23 21 21 19 18 19 18 18 18 17 16 15 16 16 14 13 16 21 27 32 33 32 33 32 31 31 30 29 28 27 27 26 25 25 24 24 24 24 24 23 22 22 21 22
34 34 34 34 34 34 34 33 33 32 31 31 31 30 29 29 29 30 30 30 30 31 31 31 31 30 30 31 31 30 29 29 28 27 26 26 26 24 24 24 24 24 23 22 21 19 19 20 19 18 18 17 17 17 15 13 13 15 18 22 30 36 36 34 33 33 32 31 30 29 28 28 26 26 26 25 25 25 25 25 25 24 23 23 23
35 34 34 33 33 32 32 31 31 31 30 30 30 29 29 28 28 29 29 30 30 31 31 32 32 31 31 32 32 31 31 30 30 29 28 28 28 26 25 25 25 25 25 24 23 22 20 20 20 19 18 18 19 20 19 15 13 13 16 18 27 38 38 35 34 34 33 32 30 30 29 28 27 26 26 26 25 25 25 26 26 26 25 25 24
35 34 33 32 31 30 29 28 27 27 26 26 26 26 26 27 27 27 28 29 29 30 31 32 32 32 32 32 32 31 32 32 31 31 30 29 29 28 27 27 25 25 26 26 24 23 22 20 20 20 19 18 19 19 18 18 16 13 12 15 25 36 37 34 33 33 33 33 31 31 30 29 27 26 26 26 26 26 26 26 27 27 27 26 25
35 35 34 33 32 31 29 28 27 26 25 24 23 23 23 23 23 24 25 27 28 29 30 31 32 32 33 33 32 31 32 33 32 31 31 31 30 30 30 29 27 26 27 27 26 25 24 22 22 22 21 19 19 18 17 17 17 14 11 12 19 30 34 32 32 32 33 33 32 32 31 30 29 28 28 27 26 27 27 27 27 28 28 27 26
35 35 35 34 34 33 32 30 29 27 26 25 24 23 22 21 21 21 22 23 25 27 29 31 32 33 33 33 33 31 32 33 32 32 32 32 31 31 31 30 29 29 28 28 28 27 26 25 24 23 22 21 20 20 18 17 17 17 16 14 14 21 28 31 32 32 33 34 33 33 32 31 31 30 29 28 27 28 28 27 28 30 30 28 28
33 33 33 33 33 32 31 30 29 28 26 25 24 23 22 21 21 20 20 20 21 23 25 28 31 33 34 34 34 33 32 33 32 32 32 32 32 31 31 31 30 30 30 29 29 29 28 27 26 25 23 22 21 21 19 18 18 19 19 18 16 17 21 27 31 33 33 34 34 34 33 32 32 31 30 29 29 30 28 27 28 30 30 29 29
31 31 31 31 31 30 29 28 28 26 25 24 23 23 22 22 22 21 21 20 20 21 21 23 26 29 32 34 35 35 34 33 33 33 32 32 32 31 32 32 31 31 31 31 30 30 29 29 29 28 26 24 23 22 20 19 20 19 18 18 19 19 19 22 29 33 34 35 35 35 35 35 34 32 31 30 30 30 29 28 29 29 30 30 29
28 29 29 29 28 28 27 25 25 24 23 23 22 22 22 22 23 23 22 22 21 21 21 21 23 25 28 31 33 35 35 34 34 33 33 33 33 32 32 32 32 31 31 31 31 31 30 29 29 29 28 26 24 23 22 20 20 19 16 15 19 22 20 19 22 28 34 36 37 37 38 36 35 33 32 31 30 31 30 30 30 29 30 31 30
26 26 26 26 25 24 23 22 22 21 21 21 21 21 22 23 24 24 24 24 23 23 22 22 22 23 25 27 29 32 34 35 35 34 33 33 33 33 32 31 32 32 32 31 32 32 32 31 30 29 29 28 26 25 24 23 21 20 19 16 15 18 19 16 17 21 30 37 38 38 39 37 35 35 33 31 32 32 32 32 32 31 31 31 31
24 24 24 24 23 22 21 21 21 21 21 21 20 21 23 24 25 26 26 26 26 25 24 23 22 22 24 25 27 29 30 32 33 33 34 34 34 33 32 31 32 33 32 32 32 32 32 33 32 31 31 30 27 26 25 25 24 22 25 23 17 15 15 14 16 18 24 34 38 38 39 38 37 36 34 33 34 33 33 34 32 31 31 32 33
23 23 23 23 22 21 21 21 21 21 20 20 20 22 23 25 26 27 28 28 27 26 25 24 23 23 23 24 26 27 28 29 30 31 32 33 34 34 33 32 32 32 32 32 32 32 33 33 33 33 33 31 29 28 26 26 25 24 27 29 26 22 19 18 20 21 21 28 36 38 38 39 39 38 36 35 35 34 34 34 33 31 32 33 34
22 23 23 22 22 21 20 20 20 20 19 19 20 22 24 25 27 29 29 28 27 26 24 23 23 23 23 23 25 26 27 27 28 28 29 30 32 33 34 33 32 31 32 32 32 33 33 34 34 34 34 32 30 29 28 27 27 26 27 30 31 30 27 25 25 26 24 24 30 35 37 39 40 40 38 37 36 35 34 34 34 33 32 33 34
23 23 23 22 22 21 20 20 20 20 19 19 20 21 24 26 28 29 29 28 26 25 23 22 22 22 22 23 24 25 26 26 27 27 27 27 28 30 32 33 32 31 31 32 33 33 34 34 35 35 34 33 31 30 30 28 28 28 28 29 30 30 29 28 28 27 25 23 25 31 36 39 39 39 38 38 36 35 35 35 34 33 33 34 35
22 23 23 23 22 21 20 20 20 20 20 19 20 22 24 26 28 29 29 28 25 23 22 21 20 21 21 22 22 23 25 25 26 26 26 26 26 27 29 31 32 31 31 32 33 33 34 34 35 35 35 35 33 32 31 31 30 30 29 29 29 29 29 29 29 26 25 24 24 27 31 36 38 38 38 37 36 35 35 34 33 33 34 36 36
22 23 23 23 23 22 21 20 20 21 20 20 20 22 24 26 28 29 29 29 26 24 22 20 19 19 20 20 21 22 23 24 24 25 25 25 24 24 25 27 30 31 31 32 32 33 34 34 34 35 35 35 35 33 32 32 32 31 31 30 29 29 29 29 29 26 24 24 25 26 26 28 31 35 37 37 37 37 36 35 34 35 36 36 36
23 23 23 23 23 22 21 21 21 21 21 20 21 22 24 26 27 28 29 29 28 25 22 20 19 18 19 19 20 20 21 22 23 24 24 24 23 23 23 24 26 28 30 31 32 32 33 34 34 35 35 35 35 35 34 34 33 33 32 32 30 29 29 29 29 28 25 23 24 26 26 24 24 28 34 37 38 37 38 38 38 38 38 38 38
23 23 23 23 23 23 22 22 21 21 21 21 22 23 24 26 27 28 28 29 28 27 24 22 20 19 18 19 19 19 20 21 21 23 23 23 23 23 22 22 23 25 27 29 31 32 32 34 34 34 34 35 35 35 35 34 34 33 33 33 31 30 29 30 30 29 26 24 23 23 24 24 23 23 27 35 40 40 40 41 40 38 39 39 38
24 24 23 23 23 23 23 23 22 22 22 22 22 22 23 25 26 27 28 28 28 28 26 23 21 20 19 19 19 19 19 19 20 21 22 22 23 22 22 21 21 22 24 27 29 31 32 33 33 34 34 34 35 35 35 35 35 34 33 33 32 31 30 31 31 31 28 26 25 24 23 24 25 24 24 29 37 42 42 41 40 39 39 39 39
25 24 24 23 23 23 23 23 23 23 22 22 22 22 23 23 24 26 27 27 28 28 27 25 23 21 20 19 19 18 18 19 19 19 20 21 21 22 22 21 21 21 22 24 26 29 30 31 32 33 33 34 34 34 35 36 35 35 34 34 33 32 31 31 32 32 31 29 28 27 26 25 26 26 25 25 32 41 44 43 42 41 39 39 40
26 25 24 24 24 24 23 23 23 23 23 22 22 22 23 23 24 25 26 26 27 27 27 26 24 22 20 20 19 18 18 18 18 19 19 20 20 21 21 21 21 21 21 21 23 26 28 29 30 31 32 32 33 34 35 36 36 36 36 35 34 33 32 32 32 33 32 31 30 29 28 28 27 27 26 25 27 36 43 45 44 42 41 40 41
26 26 25 24 24 23 23 23 23 23 23 23 22 22 22 23 23 24 25 26 26 26 26 26 25 23 21 20 19 19 18 18 18 18 18 19 19 20 21 21 21 21 21 21 21 23 25 27 28 30 31 31 32 33 34 35 36 36 36 36 35 34 33 33 33 33 33 32 32 31 31 30 28 27 27 26 26 31 39 45 45 43 43 42 41
27 26 25 23 23 22 22 22 22 23 23 23 22 22 22 23 23 23 25 26 26 26 26 26 25 24 22 20 19 18 18 17 17 18 18 18 19 19 20 21 21 21 21 21 21 21 22 24 25 27 29 30 31 33 34 34 35 36 36 36 36 35 34 33 33 33 33 33 32 32 32 31 30 28 27 26 26 28 34 42 45 44 43 44 43
27 26 25 23 23 23 23 23 22 23 23 23 23 22 23 23 23 23 24 25 26 26 26 26 26 25 24 22 19 18 17 17 17 17 18 18 18 19 20 21 21 21 21 21 21 21 21 22 23 25 27 29 30 32 33 33 34 35 36 36 36 36 35 34 34 34 34 33 33 33 33 32 31 30 28 26 26 27 30 36 43 44 43 44 45
27 26 25 24 23 23 24 24 23 23 23 23 23 22 22 23 23 23 24 25 25 25 25 25 25 26 26 24 22 19 18 17 16 17 17 18 18 18 19 20 21 22 22 22 21 21 21 21 22 23 25 27 29 30 32 33 33 34 36 36 36 36 36 35 36 36 35 34 34 33 33 33 32 30 30 28 27 27 27 31 37 43 47 47 47
27 27 26 25 24 24 24 25 25 24 24 23 23 23 22 22 22 22 23 24 24 24 24 24 25 25 25 25 24 22 19 17 17 16 17 17 18 18 18 19 20 21 22 22 22 21 21 21 21 22 23 24 26 29 30 32 33 33 34 35 35 36 37 37 37 37 36 34 34 34 34 34 33 31 30 29 28 27 27 27 30 36 43 48 49
26 26 26 25 25 24 24 25 25 24 24 23 23 23 23 22 22 22 22 23 24 24 24 24 23 24 24 25 25 25 23 20 18 17 17 17 18 18 18 19 19 20 22 22 22 22 21 21 21 22 22 23 24 27 29 31 32 33 33 34 35 36 36 37 37 37 37 36 35 35 34 34 33 33 31 30 29 28 27 26 27 29 33 40 48
25 26 26 25 25 25 24 24 24 24 24 23 23 23 23 23 22 22 22 22 22 22 23 24 23 23 23 24 25 25 25 24 21 18 17 17 17 18 18 19 18 19 20 21 22 22 21 21 21 21 21 22 23 25 27 29 31 32 33 34 34 35 36 36 37 37 37 36 36 36 35 34 34 34 33 32 31 30 28 26 26 26 27 30 38
25 25 25 25 25 25 24 23 23 24 24 23 23 23 23 23 23 22 22 22 22 22 22 23 23 23 23 23 24 25 26 26 24 21 19 17 17 17 18 18 19 18 19 20 21 22 21 21 21 21 21 21 22 23 25 27 29 31 32 33 34 35 35 36 37 37 36 36 37 37 36 35 35 34 34 34 33 31 30 28 25 25 25 25 29
25 25 25 25 24 24 24 23 23 23 23 23 23 23 23 23 23 23 22 22 22 22 22 22 22 23 23 24 24 25 26 27 26 24 21 19 17 17 17 18 18 18 18 19 20 21 21 21 20 20 21 21 21 22 23 25 27 29 31 32 33 34 35 35 36 36 36 36 37 38 37 36 35 35 34 34 34 33 31 29 27 24 24 24 25
25 25 24 24 24 24 23 23 23 23 22 23 23 23 23 23 23 23 22 22 22 22 22 22 21 22 22 23 24 25 26 28 27 25 23 20 18 17 16 17 17 18 18 19 19 21 21 21 20 20 20 20 20 21 22 23 24 26 28 31 32 33 34 35 35 36 36 36 37 37 37 36 35 35 34 34 35 34 32 31 29 26 24 24 25
Wind_Direction
303 302 303 303 305 308 308 308 308 306 309 310 310 310 310 308 305 300 296 293 292 293 296 298 300 302 305 306 302 299 296 292 290 290 294 296 295 298 279 246 233 232 232 235 238 235 232 232 231 230 231 231 230 228 224 224 226 228 231 234 232 228 226 229 229 222 217 217 220 222 222 219 220 224 222 219 217 213 207 203 201 200 197 196 195
298 298 298 299 301 301 301 299 299 302 303 304 303 303 303 302 300 298 297 297 297 297 298 300 303 304 306 308 306 303 300 295 290 286 285 286 284 283 280 261 237 235 237 238 243 241 235 233 233 231 230 230 230 229 224 221 224 227 228 232 232 229 227 227 228 225 221 220 220 224 224 221 221 225 222 217 216 214 208 203 201 201 199 198 197
295 297 297 297 297 294 295 294 295 297 298 298 298 299 300 299 298 298 298 297 297 297 299 300 302 304 304 304 304 304 303 298 292 288 284 280 277 273 270 266 252 244 243 241 244 246 240 234 233 231 228 227 228 227 223 221 224 226 227 230 231 228 227 225 225 225 223 221 221 223 224 224 223 223 222 217 214 213 208 204 203 202 199 197 195
293 295 296 295 294 292 293 293 294 296 295 296 296 297 297 297 297 298 298 298 297 298 298 299 298 298 298 298 298 298 299 297 292 288 285 281 276 272 267 267 264 252 247 247 246 248 246 239 233 231 228 227 227 226 224 222 224 227 227 229 231 229 227 226 226 225 224 222 221 221 223 226 225 223 222 217 214 211 207 204 203 201 199 197 193
294 294 293 293 292 292 292 292 293 294 295 295 295 296 297 297 297 297 298 297 297 296 294 294 294 294 293 292 294 294 293 292 290 288 286 283 277 273 269 267 266 261 256 256 252 249 249 244 237 234 230 228 230 228 225 222 221 224 227 227 230 232 230 228 229 228 227 224 222 220 221 225 226 225 222 218 214 209 205 204 202 200 199 198 194
298 298 296 295 293 292 292 291 291 291 292 293 294 295 295 295 296 295 294 294 293 292 291 291 290 290 289 288 289 290 290 289 287 287 284 283 283 283 281 274 270 268 264 262 259 255 252 247 241 239 237 231 229 228 224 221 219 220 226 228 228 231 233 231 231 232 231 227 225 222 220 221 224 225 223 219 215 208 205 204 202 200 199 199 198
301 301 300 298 296 293 292 291 290 289 288 288 288 289 288 289 289 289 289 290 290 291 291 292 290 288 287 285 285 285 286 286 285 285 280 278 281 284 286 284 280 275 268 263 263 261 257 251 243 242 242 235 229 226 223 220 218 216 221 226 225 227 230 232 233 235 235 232 227 224 220 218 220 222 222 220 215 208 203 202 202 200 198 197 198
300 300 300 299 297 295 292 291 290 289 288 288 286 285 284 283 283 283 284 284 285 287 289 291 291 290 288 286 285 283 282 283 283 283 280 278 276 273 275 277 277 277 274 271 266 262 261 256 246 242 243 237 229 227 225 222 220 216 216 221 223 225 226 228 231 234 236 235 229 223 220 216 217 220 221 218 215 207 201 199 201 199 196 194 197
298 296 295 294 293 293 293 293 292 291 291 290 289 287 286 285 285 284 284 283 282 281 282 285 287 288 289 288 286 284 282 281 282 281 280 281 279 275 270 267 268 271 275 277 272 267 265 262 254 245 242 239 232 228 228 225 223 221 219 222 225 226 225 225 227 230 234 235 230 224 219 215 214 218 218 215 212 206 199 199 201 199 197 195 197
297 295 293 292 291 291 292 294 295 295 296 294 292 290 289 288 287 287 286 286 285 283 281 278 280 282 284 285 285 284 282 281 281 279 278 279 281 279 275 271 271 272 275 276 273 274 273 267 262 250 241 239 234 229 230 229 227 226 223 224 227 227 226 225 226 227 230 232 231 225 219 213 212 215 216 213 210 205 199 199 201 200 199 198 199
299 298 297 295 294 293 292 293 295 296 296 295 292 291 289 288 286 287 287 287 289 288 286 281 277 277 278 279 281 282 281 279 278 277 276 278 280 280 278 274 273 276 280 280 277 279 280 273 271 265 249 241 236 232 231 231 231 232 228 228 229 227 224 224 225 226 226 229 230 227 220 211 209 214 216 213 212 208 202 200 201 200 200 201 201
304 303 301 298 296 295 294 294 294 295 295 294 292 290 288 286 284 283 283 285 286 286 286 284 280 276 274 275 276 277 277 276 275 274 275 278 278 276 276 274 272 276 280 283 284 284 285 281 279 277 266 251 240 234 232 230 230 232 232 231 230 227 224 223 225 226 225 228 230 229 220 209 206 211 214 214 212 211 208 204 201 200 201 202 202
310 309 306 304 301 299 297 295 294 293 292 292 291 289 286 284 282 280 280 281 282 281 282 282 281 278 274 271 271 271 271 273 274 272 271 273 274 273 274 275 275 276 276 277 280 284 285 284 282 278 272 261 245 234 231 229 227 228 230 232 232 229 227 224 224 225 225 227 228 227 219 208 204 207 211 214 212 212 213 210 203 201 201 202 203
311 312 311 310 310 308 305 302 298 295 293 291 289 287 285 283 281 280 280 280 280 280 280 280 279 278 276 272 268 266 266 267 269 270 270 270 270 271 272 272 270 268 268 268 271 274 276 278 279 277 274 270 252 236 229 227 226 226 227 231 232 230 228 225 224 226 225 224 224 223 217 208 203 205 209 213 212 211 214 213 206 202 202 203 203
309 310 311 310 310 309 308 306 303 299 296 293 291 289 287 285 283 283 282 281 280 280 279 279 278 277 276 274 270 266 263 262 264 267 269 269 269 268 268 269 268 265 263 262 263 264 266 268 272 274 273 273 264 241 231 227 226 226 226 227 229 229 227 224 223 225 225 222 222 220 215 209 205 205 209 212 211 210 212 214 208 203 204 205 204
310 309 308 307 306 305 305 304 302 299 295 291 290 288 287 286 285 284 284 283 282 280 279 278 277 276 275 274 272 268 264 262 261 262 263 266 268 266 264 265 265 263 261 262 262 262 264 265 269 274 273 271 268 253 236 230 227 226 226 226 226 228 226 222 221 222 222 221 221 219 212 208 207 207 210 211 211 211 211 211 210 205 204 206 205
311 309 307 304 302 302 301 300 298 295 292 289 287 286 285 284 283 283 283 283 283 282 280 278 276 275 273 271 270 268 266 263 261 260 259 261 263 263 262 262 263 259 257 260 261 263 267 269 270 271 272 272 270 265 250 234 228 225 226 225 225 227 226 223 221 220 220 220 220 218 211 207 208 209 211 211 210 211 211 209 209 208 205 206 207
311 309 306 304 303 302 302 300 298 296 293 291 288 286 284 283 282 281 280 280 280 280 279 277 276 274 273 271 268 267 266 264 261 260 258 257 258 260 259 259 262 262 259 259 258 260 264 266 267 266 268 274 270 267 264 244 228 224 225 224 222 224 224 222 221 221 220 220 219 218 214 208 208 211 212 211 208 208 212 210 209 209 205 205 206
309 307 306 305 305 304 303 301 299 298 296 293 290 287 285 283 282 281 279 278 277 276 275 275 275 273 272 271 269 268 267 264 262 261 259 258 256 256 256 255 258 260 259 258 257 257 258 258 260 263 265 268 267 265 265 252 232 226 226 225 222 220 221 221 220 220 220 219 218 218 216 210 209 211 213 213 209 206 210 212 211 209 206 205 204
310 309 308 307 305 304 302 300 298 297 295 294 291 289 287 284 282 280 278 277 275 274 273 272 271 271 270 269 268 268 267 265 263 261 259 258 256 255 255 254 255 257 256 256 256 256 256 256 257 259 259 260 264 264 261 256 243 233 229 228 226 222 222 222 219 217 217 217 217 216 215 212 210 211 212 212 210 208 209 211 212 210 208 205 203
310 309 308 306 305 304 303 301 299 298 297 295 293 292 290 287 284 281 278 276 274 273 272 271 269 268 267 266 266 265 264 263 262 260 258 257 255 254 254 253 253 254 253 253 253 253 254 255 254 255 254 254 257 260 262 261 254 244 237 232 228 224 223 224 220 217 216 216 216 216 215 213 210 210 210 210 210 209 208 211 212 210 209 207 205
310 308 307 306 305 304 304 304 303 303 302 300 298 296 293 290 286 283 280 277 273 271 271 270 269 267 265 264 263 262 261 260 259 258 257 256 255 254 252 251 251 251 250 249 250 250 252 253 253 252 251 251 252 254 260 265 260 253 249 240 230 225 222 222 219 215 214 214 214 216 217 215 211 208 208 208 209 209 209 210 211 210 209 208 208
314 313 313 312 312 312 312 311 310 309 307 305 302 300 296 291 287 284 280 277 274 271 269 268 267 266 264 262 260 260 259 258 256 255 254 254 254 253 251 250 249 249 249 247 245 245 249 251 252 251 249 251 253 253 254 260 269 266 255 246 232 223 219 220 219 214 212 212 212 214 217 216 213 210 208 207 207 208 210 211 211 210 209 208 208
320 321 322 323 323 323 323 321 319 317 314 310 306 303 299 294 289 284 279 276 273 270 268 266 266 265 263 261 259 258 257 256 254 253 253 252 252 251 250 249 248 248 248 247 245 243 243 245 248 249 247 247 250 254 256 257 266 271 257 246 231 219 214 217 219 216 213 211 210 212 214 214 213 212 210 208 207 206 208 211 213 211 209 208 208
326 327 329 330 330 329 329 328 326 324 322 319 315 312 308 302 296 290 283 278 273 269 266 264 263 263 262 261 259 256 254 254 253 252 252 250 250 249 248 247 246 245 245 248 247 244 242 243 247 248 245 242 243 250 257 256 256 258 255 251 233 219 214 216 219 218 215 212 210 211 213 212 211 211 209 208 209 209 207 208 211 212 211 208 207
324 325 326 327 327 327 327 327 326 326 325 324 321 320 317 312 307 301 294 287 280 274 268 265 262 260 260 259 258 256 253 252 251 251 251 249 249 248 248 247 245 243 242 244 247 245 243 243 245 247 245 241 241 245 250 251 248 247 251 258 247 228 219 216 217 218 216 213 211 211 212 211 210 211 210 206 208 212 210 209 210 211 210 207 207
323 324 324 324 324 324 325 325 325 326 326 325 324 323 321 318 314 311 306 299 292 284 276 270 265 261 259 258 256 255 253 251 250 250 250 249 248 248 247 247 245 243 242 241 243 244 243 242 243 246 246 242 242 244 244 244 244 247 252 257 257 246 231 219 217 218 217 214 213 211 211 210 210 210 211 208 208 210 212 211 211 212 210 207 207
326 326 326 325 326 326 326 327 327 328 328 328 328 327 326 324 320 317 313 307 302 295 287 279 272 267 263 259 257 256 253 251 249 248 249 249 248 247 246 246 244 243 242 240 241 241 242 243 242 244 246 243 240 240 238 239 243 246 248 251 252 248 239 228 221 220 219 216 214 212 211 210 210 209 210 209 209 210 211 212 212 213 211 208 209
326 326 326 326 327 328 329 330 331 332 333 333 334 334 333 331 328 325 320 315 309 302 295 287 281 274 269 265 261 259 256 254 251 248 248 248 248 247 246 245 244 242 240 239 239 239 240 241 241 241 244 244 239 236 235 236 239 238 233 240 242 230 224 232 231 224 220 217 214 213 212 212 210 209 210 210 211 211 210 211 212 213 211 207 207
327 327 327 328 329 330 332 334 335 336 336 336 337 337 337 335 332 329 325 320 315 308 301 293 286 280 275 270 266 263 260 258 255 252 249 248 247 247 246 245 244 242 240 238 237 237 238 239 240 240 242 243 241 238 234 232 232 228 221 226 232 216 207 221 237 232 224 220 217 214 213 213 212 210 209 210 213 213 210 210 211 211 210 207 206
331 331 330 331 332 332 333 334 335 335 335 335 337 337 337 336 334 331 327 322 317 311 305 298 291 284 278 274 271 268 265 262 259 256 253 250 248 247 247 245 244 243 241 239 237 236 236 237 238 239 239 240 241 239 234 230 229 225 220 223 228 218 208 217 237 244 232 221 218 218 215 213 213 213 212 211 212 211 210 211 211 210 209 208 207
338 337 335 333 331 331 331 331 332 332 332 334 336 337 338 338 337 335 330 325 319 314 308 302 295 287 280 276 273 272 270 267 264 260 257 254 251 249 248 246 245 243 243 241 238 236 235 236 236 237 238 238 238 238 235 231 229 225 221 224 229 232 236 239 242 250 244 225 218 218 218 215 214 215 215 213 211 210 212 214 213 211 211 210 209
346 344 341 337 332 329 328 329 331 332 332 333 336 338 339 341 341 340 336 330 323 317 311 306 300 292 284 278 274 272 272 272 269 266 263 258 254 251 249 248 246 244 243 241 239 236 235 234 235 235 237 237 236 236 236 233 230 227 224 225 229 234 240 243 242 245 247 236 222 217 218 218 216 215 215 214 212 211 213 215 213 212 212 211 209
351 349 346 342 337 333 330 330 333 333 333 333 335 338 340 343 344 344 342 337 329 321 315 309 304 299 292 283 277 272 271 272 272 271 269 265 259 254 251 248 247 245 244 242 239 237 235 234 234 234 235 236 236 234 235 235 232 230 228 227 229 232 234 237 240 241 241 240 230 220 217 218 218 217 216 215 213 213 214 214 213 213 213 211 207
351 350 350 347 342 337 332 331 332 333 333 333 334 337 340 344 346 347 347 344 336 327 321 315 309 304 299 291 283 276 271 270 272 273 273 270 266 260 254 250 247 246 245 243 241 239 237 235 234 234 234 235 235 233 233 233 232 231 231 230 229 230 231 234 238 239 237 236 233 225 218 218 219 219 217 216 214 215 216 214 213 213 214 212 209
349 349 349 349 346 341 336 331 331 332 332 331 332 335 339 344 346 348 349 349 345 336 327 322 315 309 304 297 289 282 276 272 271 272 273 273 271 267 260 254 249 245 244 244 243 241 239 237 234 233 233 234 234 232 231 231 231 231 231 231 229 228 230 233 235 236 235 233 233 230 225 220 219 219 217 216 214 215 216 214 212 214 215 214 212
347 347 347 347 345 342 338 333 330 330 330 330 330 333 337 342 346 348 350 351 350 344 334 327 320 313 308 301 294 287 281 276 273 272 272 273 273 271 267 261 254 248 244 243 243 242 241 239 236 233 232 232 233 232 230 230 230 230 230 230 229 226 227 231 234 234 232 231 232 233 232 230 226 223 221 218 216 215 215 215 213 213 214 214 212
346 346 345 344 343 341 339 336 332 330 330 329 329 332 335 340 344 346 348 351 352 349 341 332 325 318 312 306 299 292 286 281 276 274 273 272 273 273 271 267 261 254 248 244 242 242 241 241 239 236 233 232 232 231 231 230 229 228 229 230 229 226 224 226 231 233 229 227 229 230 231 232 231 229 227 223 219 216 217 217 216 214 215 214 212
346 345 344 342 340 338 338 336 334 331 330 329 330 331 334 339 343 345 347 349 352 352 348 339 330 323 316 310 304 297 289 284 279 276 274 273 273 272 272 270 266 260 254 248 244 242 241 241 240 238 235 232 231 231 231 230 229 228 228 228 229 227 224 223 226 229 227 223 224 225 224 225 227 228 230 227 221 218 218 218 218 217 217 215 213
346 344 343 342 340 339 336 335 334 332 330 329 329 331 333 336 341 344 346 348 351 353 352 346 337 329 322 315 308 301 294 286 281 277 275 274 273 272 271 270 267 264 259 254 249 245 243 242 241 240 238 234 231 231 230 231 230 228 227 227 227 227 225 223 222 225 225 221 220 222 221 220 222 225 229 229 224 219 219 219 218 218 218 217 215
346 345 344 344 342 340 336 334 334 333 331 330 330 331 332 335 340 343 344 348 351 354 354 351 344 337 329 321 314 306 299 290 283 279 275 273 273 272 271 270 267 265 262 258 254 251 247 244 241 241 240 237 234 231 230 230 230 229 227 225 225 225 225 224 222 223 224 221 219 220 222 220 220 223 227 230 227 220 218 219 218 217 217 217 217
347 346 346 346 344 340 338 336 335 334 334 332 331 332 332 334 338 341 343 346 350 352 354 354 351 343 334 327 320 313 304 295 286 281 276 273 272 271 271 271 268 265 262 259 257 254 252 248 245 242 240 239 237 234 230 229 229 229 228 226 225 225 224 224 223 222 222 222 220 220 222 222 220 221 224 228 229 224 219 218 218 217 215 215 217
349 348 348 347 344 343 341 340 338 338 337 335 334 333 333 335 338 339 341 344 347 349 352 354 355 351 343 334 327 320 311 301 292 284 279 275 272 270 270 271 270 267 264 261 258 255 253 251 248 245 241 238 237 235 232 230 228 228 228 226 225 225 223 223 223 222 221 222 221 220 222 223 222 221 224 225 227 228 222 218 218 218 217 215 216
350 349 349 348 347 347 346 344 344 343 340 339 339 336 335 336 338 339 339 341 344 347 348 350 353 355 353 345 335 327 318 309 299 289 283 279 274 270 269 269 270 270 268 264 259 255 253 251 249 246 243 239 237 236 234 232 229 228 227 226 226 225 223 222 223 223 221 220 221 220 222 224 224 222 224 225 226 229 227 220 217 217 218 217 216
349 349 350 350 351 351 349 348 349 348 346 344 343 341 338 337 338 338 338 338 340 343 344 346 349 353 356 354 347 338 327 318 308 296 287 282 278 273 269 267 267 269 269 267 263 258 254 251 249 247 245 242 239 237 235 233 231 229 227 226 226 225 223 221 222 223 222 220 221 221 221 224 225 224 224 226 227 229 229 225 220 217 218 219 218
348 349 351 351 352 353 352 351 351 352 351 349 347 345 343 340 339 338 337 337 338 339 341 343 346 349 352 355 355 350 340 328 317 304 293 284 280 277 272 268 265 265 266 267 266 263 258 253 250 248 246 243 241 238 235 233 232 230 228 227 226 226 224 222 221 222 222 220 221 221 221 223 225 225 224 225 227 228 229 228 224 221 220 220 220
347 349 351 351 352 354 354 353 353 354 354 352 351 350 347 345 343 340 338 337 337 338 339 340 343 346 347 350 354 355 351 342 329 314 302 290 282 278 275 271 267 263 263 264 266 265 261 256 252 249 247 244 242 240 236 234 232 231 230 228 227 226 226 223 222 221 221 220 221 221 221 221 223 224 223 224 226 228 229 229 227 224 222 221 221
345 347 350 351 352 353 354 354 353 354 356 355 353 352 350 349 347 344 342 341 339 339 338 338 341 343 344 346 350 353 353 350 341 327 313 299 288 281 277 274 270 265 261 261 262 263 262 259 255 251 249 245 243 241 239 235 233 231 230 229 227 227 226 225 224 222 220 220 221 221 221 220 221 222 222 221 223 226 228 230 229 228 226 224 222
342 345 349 352 352 352 353 353 353 354 356 356 354 353 352 352 351 349 348 346 344 343 341 339 340 341 342 344 346 348 350 350 346 338 324 310 297 286 279 275 272 268 263 260 259 260 261 260 257 254 251 247 244 242 240 238 235 232 230 229 228 228 227 226 225 224 221 220 220 220 220 219 219 220 220 220 221 223 226 229 230 229 228 228 226
339 342 347 350 352 352 352 351 352 354 355 355 355 354 352 353 353 353 353 352 349 347 345 342 340 340 341 343 344 346 348 347 346 342 332 320 307 294 283 276 273 269 265 261 258 257 258 259 258 255 252 248 245 243 241 239 237 234 232 230 229 228 227 227 226 225 223 222 220 220 220 220 218 218 219 219 220 221 223 226 227 228 227 227 227
336 339 344 346 349 351 351 350 351 353 354 354 353 353 352 353 354 354 355 355 353 351 348 346 343 342 342 342 343 344 346 346 345 342 336 327 315 303 291 280 274 271 267 263 259 257 256 256 256 255 253 251 247 244 242 240 239 237 234 232 230 228 227 227 227 226 225 223 221 220 221 221 220 218 218 218 218 220 221 223 224 225 224 223 225
Height
5884 5883 5883 5882 5882 5881 5880 5880 5880 5879 5879 5878 5878 5878 5878 5877 5877 5877 5877 5877 5877 5876 5875 5874 5874 5873 5873 5873 5873 5873 5872 5872 5871 5870 5870 5869 5868 5868 5868 5869 5870 5872 5874 5875 5876 5877 5879 5880 5880 5881 5882 5883 5884 5885 5885 5886 5888 5889 5890 5890 5891 5892 5892 5893 5894 5894 5895 5896 5898 5899 5900 5902 5903 5904 5905 5906 5908 5909 5909 5910 5912 5914 5915 5916 5918
5883 5882 5881 5881 5880 5880 5879 5879 5878 5878 5877 5877 5876 5876 5876 5876 5875 5875 5875 5875 5875 5874 5874 5873 5872 5871 5871 5871 5871 5871 5871 5871 5870 5869 5869 5869 5869 5869 5869 5869 5870 5870 5871 5873 5874 5875 5877 5878 5879 5880 5881 5882 5883 5883 5884 5884 5886 5887 5888 5889 5890 5891 5891 5892 5893 5893 5894 5895 5896 5897 5899 5901 5902 5902 5903 5905 5906 5907 5908 5909 5911 5913 5914 5915 5917
5882 5881 5880 5880 5879 5878 5878 5877 5877 5876 5876 5875 5875 5874 5874 5874 5873 5873 5873 5873 5873 5872 5872 5871 5870 5870 5869 5869 5869 5869 5869 5869 5869 5868 5868 5868 5869 5869 5869 5869 5869 5869 5869 5870 5872 5873 5874 5876 5877 5878 5879 5880 5881 5882 5882 5882 5884 5886 5887 5888 5888 5889 5890 5891 5892 5892 5893 5894 5895 5896 5898 5900 5900 5901 5902 5904 5905 5906 5907 5908 5910 5912 5913 5914 5915
5880 5880 5879 5878 5878 5877 5876 5876 5875 5874 5874 5873 5873 5873 5872 5872 5872 5871 5871 5871 5870 5870 5870 5869 5869 5868 5868 5868 5868 5868 5868 5868 5867 5867 5867 5867 5867 5868 5868 5868 5868 5868 5868 5869 5870 5871 5872 5873 5874 5875 5876 5877 5878 5880 5880 5880 5882 5884 5886 5886 5887 5888 5889 5890 5891 5891 5892 5893 5894 5895 5896 5898 5900 5900 5901 5902 5903 5904 5906 5907 5909 5910 5912 5913 5914
5879 5878 5878 5877 5876 5875 5875 5874 5874 5873 5872 5872 5871 5871 5870 5870 5870 5869 5869 5869 5868 5868 5868 5868 5867 5867 5867 5866 5866 5866 5866 5866 5866 5866 5866 5866 5866 5866 5866 5866 5866 5866 5866 5867 5868 5869 5870 5871 5872 5873 5874 5876 5876 5877 5878 5878 5880 5882 5884 5885 5885 5886 5887 5889 5890 5890 5891 5892 5893 5894 5895 5897 5898 5899 5900 5901 5902 5903 5905 5906 5908 5909 5911 5912 5914
5878 5877 5876 5875 5874 5874 5873 5872 5872 5871 5871 5870 5870 5869 5869 5868 5868 5867 5867 5867 5866 5866 5866 5866 5866 5865 5865 5865 5865 5865 5864 5864 5864 5864 5865 5865 5865 5865 5865 5865 5865 5865 5864 5864 5866 5867 5868 5869 5869 5870 5872 5873 5874 5874 5875 5876 5877 5879 5882 5883 5883 5885 5886 5887 5888 5889 5890 5891 5892 5893 5894 5895 5897 5898 5899 5899 5901 5902 5903 5905 5907 5908 5910 5912 5913
5876 5875 5874 5874 5873 5872 5871 5870 5870 5869 5869 5868 5868 5868 5867 5867 5866 5866 5865 5865 5865 5864 5864 5864 5864 5864 5863 5863 5864 5863 5863 5862 5862 5862 5863 5863 5863 5863 5863 5863 5862 5863 5863 5863 5864 5865 5866 5866 5866 5867 5869 5871 5871 5871 5872 5873 5875 5876 5878 5880 5882 5883 5884 5885 5886 5887 5888 5889 5890 5891 5893 5894 5896 5897 5898 5898 5899 5901 5902 5904 5906 5907 5909 5910 5912
5875 5874 5873 5872 5871 5870 5869 5868 5868 5867 5867 5867 5866 5866 5865 5865 5865 5864 5864 5863 5863 5862 5862 5862 5861 5861 5861 5861 5862 5862 5861 5861 5861 5860 5860 5861 5862 5863 5863 5863 5862 5862 5862 5862 5863 5863 5864 5864 5864 5865 5866 5867 5868 5869 5869 5871 5873 5874 5875 5877 5879 5881 5882 5883 5884 5886 5886 5887 5889 5890 5891 5893 5894 5895 5896 5897 5899 5900 5901 5903 5904 5906 5907 5909 5911
5874 5873 5872 5871 5870 5869 5868 5867 5866 5866 5865 5865 5865 5864 5864 5863 5863 5862 5862 5861 5861 5860 5860 5860 5859 5859 5859 5859 5860 5860 5859 5859 5859 5859 5858 5858 5859 5861 5862 5863 5862 5862 5862 5861 5861 5861 5862 5862 5862 5862 5863 5864 5866 5866 5867 5868 5870 5872 5873 5874 5876 5879 5880 5881 5882 5884 5885 5885 5887 5888 5889 5891 5893 5894 5895 5897 5898 5900 5901 5901 5903 5905 5906 5907 5909
5872 5871 5871 5870 5868 5867 5866 5865 5865 5864 5864 5863 5863 5862 5862 5862 5861 5860 5860 5859 5859 5858 5858 5858 5858 5857 5857 5857 5857 5857 5857 5857 5856 5856 5856 5856 5857 5858 5859 5860 5860 5860 5860 5860 5860 5860 5860 5860 5859 5860 5860 5861 5862 5863 5865 5867 5868 5869 5872 5873 5874 5876 5878 5879 5880 5882 5883 5884 5885 5886 5887 5889 5891 5893 5894 5895 5897 5898 5899 5900 5902 5903 5905 5906 5907
5871 5870 5869 5868 5867 5866 5865 5864 5863 5862 5862 5861 5861 5860 5860 5860 5859 5858 5858 5857 5857 5857 5856 5856 5855 5855 5855 5855 5855 5855 5855 5854 5854 5853 5853 5853 5854 5855 5856 5856 5856 5856 5857 5858 5858 5858 5858 5858 5857 5857 5857 5857 5859 5861 5863 5865 5867 5868 5870 5872 5873 5874 5876 5878 5879 5879 5880 5882 5883 5884 5885 5886 5888 5891 5893 5894 5895 5897 5898 5899 5900 5902 5903 5905 5906
5869 5869 5867 5866 5866 5864 5863 5862 5862 5861 5860 5859 5859 5858 5858 5858 5857 5856 5855 5855 5855 5855 5854 5853 5853 5853 5852 5852 5852 5852 5852 5851 5851 5850 5850 5851 5852 5852 5853 5853 5854 5854 5854 5854 5854 5854 5854 5854 5854 5854 5854 5855 5857 5859 5861 5863 5865 5866 5867 5870 5871 5872 5874 5875 5876 5877 5879 5880 5882 5882 5883 5884 5886 5889 5891 5892 5894 5896 5897 5898 5899 5901 5902 5903 5905
5867 5867 5866 5864 5864 5862 5861 5860 5860 5859 5858 5857 5857 5856 5856 5855 5855 5854 5853 5853 5853 5852 5852 5851 5851 5850 5850 5850 5849 5850 5849 5848 5848 5848 5848 5848 5849 5850 5850 5851 5851 5852 5852 5851 5851 5851 5851 5851 5851 5852 5852 5853 5854 5856 5858 5860 5862 5863 5864 5866 5868 5870 5872 5872 5873 5875 5877 5878 5880 5881 5882 5883 5884 5887 5889 5890 5893 5895 5896 5897 5898 5900 5901 5902 5903
5866 5865 5864 5862 5861 5860 5859 5858 5857 5857 5856 5855 5854 5854 5853 5853 5852 5852 5851 5850 5850 5849 5849 5849 5848 5848 5847 5847 5847 5846 5846 5846 5846 5846 5845 5846 5847 5847 5848 5848 5849 5849 5850 5850 5850 5850 5850 5850 5850 5851 5851 5852 5852 5853 5855 5857 5859 5860 5862 5864 5865 5867 5869 5870 5871 5873 5875 5876 5878 5880 5880 5882 5883 5885 5887 5889 5891 5893 5894 5896 5897 5898 5900 5901 5902
5864 5863 5862 5860 5859 5858 5857 5856 5855 5854 5853 5852 5851 5851 5850 5850 5849 5849 5848 5848 5847 5847 5846 5846 5845 5845 5844 5844 5844 5843 5843 5843 5843 5843 5842 5843 5844 5845 5846 5846 5846 5847 5848 5849 5849 5848 5849 5849 5849 5850 5850 5850 5850 5850 5852 5853 5855 5857 5859 5861 5862 5864 5866 5868 5870 5872 5873 5875 5876 5877 5878 5880 5882 5884 5886 5887 5889 5891 5893 5895 5896 5897 5899 5900 5901
5862 5861 5860 5858 5856 5855 5854 5853 5852 5852 5851 5849 5849 5848 5847 5847 5846 5846 5845 5845 5844 5844 5843 5843 5842 5842 5841 5841 5840 5840 5840 5840 5840 5839 5840 5840 5841 5842 5843 5842 5843 5844 5845 5846 5846 5846 5846 5847 5848 5849 5849 5849 5849 5849 5849 5850 5852 5854 5856 5859 5860 5861 5863 5865 5868 5870 5872 5873 5874 5875 5876 5878 5881 5883 5884 5886 5888 5890 5891 5893 5895 5896 5897 5898 5900
5860 5859 5857 5856 5854 5853 5852 5851 5850 5849 5848 5847 5846 5845 5844 5844 5843 5842 5842 5841 5841 5840 5840 5840 5839 5839 5838 5837 5837 5837 5837 5837 5836 5836 5837 5837 5838 5838 5838 5838 5839 5841 5842 5842 5843 5843 5844 5845 5845 5845 5846 5847 5847 5847 5847 5848 5849 5852 5853 5855 5858 5859 5861 5863 5865 5868 5869 5871 5872 5874 5875 5877 5879 5881 5882 5884 5886 5888 5890 5892 5893 5894 5895 5897 5899
5857 5856 5854 5853 5852 5850 5849 5848 5846 5845 5845 5844 5842 5842 5841 5840 5839 5839 5838 5838 5837 5837 5836 5836 5836 5835 5835 5834 5833 5833 5834 5834 5833 5833 5833 5834 5834 5834 5835 5836 5837 5838 5839 5840 5840 5840 5841 5842 5842 5842 5843 5844 5845 5845 5845 5845 5847 5849 5850 5852 5855 5857 5859 5860 5862 5864 5866 5869 5870 5872 5873 5875 5878 5879 5881 5882 5883 5886 5888 5890 5892 5893 5895 5896 5898
5855 5853 5852 5850 5849 5847 5846 5845 5843 5842 5841 5840 5839 5838 5837 5836 5836 5835 5835 5834 5834 5833 5832 5832 5832 5832 5831 5831 5830 5830 5830 5830 5830 5830 5830 5830 5831 5831 5832 5833 5834 5835 5836 5837 5837 5838 5838 5839 5839 5840 5840 5842 5843 5842 5842 5843 5845 5846 5847 5849 5852 5854 5856 5857 5859 5861 5864 5866 5868 5870 5872 5874 5876 5878 5879 5881 5882 5884 5887 5889 5891 5893 5894 5895 5897
5851 5849 5848 5846 5845 5844 5842 5841 5840 5838 5837 5836 5835 5834 5833 5833 5832 5831 5831 5830 5830 5829 5828 5828 5828 5827 5827 5827 5827 5827 5827 5827 5827 5828 5827 5828 5827 5827 5829 5830 5830 5831 5832 5833 5835 5835 5836 5836 5837 5838 5838 5839 5840 5840 5840 5841 5842 5844 5845 5846 5848 5851 5853 5854 5856 5859 5861 5864 5866 5868 5869 5872 5875 5876 5877 5879 5881 5883 5885 5887 5889 5891 5893 5895 5896
5848 5846 5844 5842 5841 5839 5838 5837 5835 5834 5833 5831 5830 5830 5829 5828 5827 5826 5826 5826 5825 5825 5824 5824 5824 5823 5823 5823 5823 5823 5823 5823 5824 5824 5824 5824 5824 5824 5825 5826 5827 5828 5829 5830 5832 5832 5833 5834 5834 5835 5836 5837 5838 5838 5838 5839 5840 5841 5842 5844 5845 5848 5850 5852 5855 5857 5859 5862 5864 5866 5867 5870 5872 5874 5875 5877 5879 5881 5884 5886 5888 5890 5892 5894 5895
5844 5842 5840 5838 5836 5835 5833 5832 5831 5829 5828 5827 5825 5825 5824 5823 5822 5821 5821 5821 5820 5820 5820 5819 5819 5819 5819 5819 5819 5819 5819 5819 5820 5820 5820 5820 5821 5821 5822 5823 5823 5824 5826 5827 5828 5829 5830 5830 5831 5832 5833 5834 5835 5836 5836 5837 5838 5838 5839 5841 5843 5844 5846 5849 5851 5853 5855 5858 5862 5864 5866 5868 5870 5871 5872 5874 5877 5879 5881 5883 5886 5888 5890 5892 5893
5839 5838 5836 5834 5832 5830 5828 5827 5825 5824 5823 5822 5820 5820 5819 5818 5817 5817 5816 5815 5815 5815 5815 5814 5814 5814 5814 5814 5814 5815 5815 5815 5815 5816 5816 5816 5817 5818 5818 5819 5820 5821 5822 5823 5824 5825 5826 5827 5828 5829 5830 5832 5833 5833 5834 5835 5836 5836 5836 5837 5838 5839 5842 5845 5847 5849 5851 5854 5859 5862 5864 5866 5868 5869 5870 5871 5873 5876 5879 5881 5883 5885 5888 5890 5891
5835 5833 5831 5829 5827 5825 5824 5822 5821 5820 5819 5817 5816 5815 5814 5813 5812 5811 5810 5810 5810 5810 5809 5809 5809 5809 5809 5809 5809 5810 5810 5810 5811 5811 5812 5812 5813 5813 5814 5815 5816 5817 5818 5819 5820 5822 5823 5823 5824 5825 5827 5829 5830 5830 5831 5833 5833 5833 5832 5832 5832 5835 5839 5842 5844 5848 5849 5851 5854 5858 5860 5863 5865 5867 5869 5870 5872 5873 5876 5879 5881 5883 5885 5888 5890
5831 5829 5827 5825 5823 5822 5820 5819 5817 5816 5815 5814 5812 5811 5810 5809 5808 5807 5806 5805 5805 5804 5804 5804 5804 5804 5804 5804 5805 5806 5805 5805 5806 5807 5807 5808 5808 5809 5810 5811 5812 5813 5814 5815 5816 5818 5820 5820 5820 5821 5823 5826 5827 5828 5829 5830 5830 5830 5830 5829 5830 5833 5836 5839 5842 5845 5847 5849 5851 5854 5856 5859 5861 5863 5866 5868 5871 5872 5873 5875 5878 5881 5883 5886 5889
5829 5827 5825 5823 5821 5819 5818 5816 5815 5813 5812 5811 5810 5808 5807 5806 5805 5804 5802 5801 5800 5800 5799 5799 5799 5799 5798 5798 5799 5800 5800 5800 5801 5802 5802 5803 5804 5804 5805 5806 5807 5809 5810 5811 5812 5814 5816 5817 5817 5818 5820 5822 5824 5825 5826 5827 5828 5828 5828 5828 5830 5832 5834 5837 5838 5841 5843 5846 5849 5850 5853 5855 5858 5860 5862 5865 5867 5870 5871 5873 5876 5878 5881 5883 5886
5828 5826 5824 5822 5820 5818 5816 5815 5813 5811 5810 5809 5807 5806 5805 5803 5802 5801 5799 5798 5797 5796 5795 5795 5794 5794 5793 5793 5794 5794 5794 5795 5796 5796 5797 5798 5799 5800 5801 5802 5803 5804 5805 5807 5808 5810 5811 5812 5813 5814 5816 5818 5820 5821 5823 5824 5825 5825 5826 5827 5828 5829 5831 5833 5835 5837 5840 5843 5845 5847 5849 5852 5855 5857 5860 5862 5864 5866 5869 5872 5874 5876 5878 5881 5883
5826 5824 5822 5820 5818 5816 5814 5813 5811 5809 5808 5806 5805 5803 5802 5800 5799 5798 5796 5795 5794 5793 5792 5791 5790 5789 5789 5789 5789 5789 5789 5790 5791 5791 5792 5793 5794 5795 5796 5797 5798 5799 5801 5803 5804 5805 5807 5808 5810 5811 5812 5814 5816 5818 5819 5821 5822 5822 5824 5824 5825 5826 5828 5830 5832 5835 5837 5839 5842 5843 5845 5848 5851 5853 5856 5859 5862 5864 5867 5870 5872 5874 5877 5880 5882
5825 5823 5821 5819 5817 5815 5813 5811 5809 5808 5806 5804 5803 5801 5800 5798 5796 5795 5793 5792 5791 5790 5789 5788 5787 5786 5785 5784 5784 5784 5784 5785 5785 5786 5788 5788 5788 5790 5791 5792 5794 5795 5797 5798 5799 5801 5803 5804 5806 5808 5808 5810 5813 5814 5815 5817 5819 5820 5821 5821 5821 5822 5824 5827 5829 5831 5834 5836 5838 5840 5842 5845 5849 5851 5853 5857 5859 5862 5865 5867 5869 5871 5875 5877 5879
5824 5822 5820 5818 5816 5814 5812 5810 5808 5807 5805 5803 5802 5800 5799 5797 5795 5793 5791 5789 5788 5786 5785 5784 5783 5782 5781 5780 5780 5779 5780 5780 5781 5782 5783 5783 5784 5786 5787 5788 5789 5790 5792 5794 5795 5797 5799 5800 5802 5804 5805 5807 5809 5811 5812 5814 5816 5817 5818 5818 5818 5819 5821 5824 5826 5828 5831 5833 5835 5837 5840 5844 5847 5849 5851 5854 5857 5859 5862 5864 5865 5867 5871 5875 5875
5823 5821 5819 5816 5814 5813 5811 5809 5807 5806 5804 5803 5801 5799 5797 5795 5793 5791 5789 5787 5785 5783 5782 5781 5780 5779 5778 5777 5776 5775 5775 5775 5776 5777 5778 5779 5780 5781 5782 5783 5784 5785 5787 5789 5791 5793 5794 5796 5798 5800 5801 5803 5805 5807 5809 5811 5813 5814 5815 5816 5816 5817 5818 5821 5823 5825 5827 5829 5832 5835 5838 5842 5844 5846 5849 5851 5854 5856 5858 5861 5863 5865 5868 5872 5873
5822 5820 5817 5815 5813 5811 5810 5808 5806 5805 5803 5801 5800 5798 5796 5794 5791 5789 5787 5784 5782 5780 5778 5777 5776 5775 5774 5773 5772 5772 5771 5771 5771 5772 5773 5774 5775 5776 5778 5779 5780 5782 5784 5785 5787 5788 5790 5792 5793 5795 5797 5799 5801 5803 5805 5807 5809 5811 5812 5813 5814 5815 5816 5818 5821 5823 5825 5827 5829 5832 5835 5838 5840 5842 5845 5848 5851 5853 5856 5858 5861 5863 5865 5868 5871
5820 5818 5816 5814 5812 5810 5809 5807 5805 5804 5802 5800 5798 5796 5794 5792 5790 5787 5784 5781 5779 5777 5775 5774 5772 5771 5771 5770 5769 5769 5768 5768 5768 5768 5769 5770 5771 5772 5773 5775 5776 5778 5780 5781 5782 5784 5785 5788 5789 5791 5793 5795 5797 5799 5801 5803 5805 5807 5808 5810 5811 5812 5814 5817 5819 5821 5823 5825 5826 5829 5832 5835 5837 5839 5841 5844 5848 5850 5853 5856 5858 5861 5864 5866 5868
5819 5817 5815 5813 5811 5809 5807 5806 5804 5802 5800 5799 5797 5795 5793 5791 5788 5785 5782 5779 5776 5774 5772 5771 5769 5768 5767 5767 5766 5766 5765 5765 5764 5765 5765 5765 5767 5768 5769 5771 5773 5774 5775 5776 5778 5779 5781 5783 5785 5787 5789 5791 5793 5795 5797 5799 5801 5803 5805 5807 5809 5810 5812 5814 5816 5818 5820 5822 5824 5826 5829 5831 5834 5836 5839 5841 5845 5848 5850 5853 5856 5859 5861 5863 5865
5818 5816 5814 5812 5809 5808 5806 5804 5802 5801 5799 5797 5795 5793 5791 5789 5786 5784 5781 5777 5774 5772 5770 5768 5767 5765 5764 5764 5763 5762 5762 5762 5762 5761 5761 5762 5763 5764 5765 5766 5768 5770 5771 5772 5774 5775 5777 5779 5781 5783 5785 5787 5789 5791 5794 5795 5797 5799 5801 5804 5805 5807 5809 5810 5813 5815 5817 5819 5821 5823 5826 5828 5830 5833 5836 5839 5842 5845 5848 5851 5854 5857 5858 5861 5863
5817 5815 5813 5810 5808 5806 5804 5802 5801 5799 5797 5795 5794 5792 5790 5787 5785 5782 5779 5776 5773 5770 5768 5766 5765 5763 5762 5761 5760 5759 5759 5759 5759 5758 5758 5759 5759 5760 5761 5762 5764 5765 5767 5768 5770 5771 5773 5775 5777 5779 5781 5783 5785 5787 5790 5792 5794 5796 5798 5800 5802 5804 5806 5807 5809 5811 5814 5816 5818 5820 5823 5825 5827 5830 5832 5835 5839 5842 5845 5848 5851 5853 5855 5858 5861
5816 5813 5811 5809 5807 5805 5803 5801 5799 5797 5796 5794 5792 5790 5788 5786 5783 5780 5777 5774 5771 5769 5767 5765 5763 5761 5759 5758 5757 5756 5756 5756 5756 5755 5755 5756 5756 5756 5757 5758 5759 5761 5763 5764 5766 5767 5769 5770 5772 5774 5777 5779 5781 5783 5786 5788 5790 5792 5795 5796 5799 5801 5803 5804 5806 5808 5811 5813 5815 5817 5819 5821 5824 5826 5829 5832 5836 5838 5840 5843 5846 5848 5851 5854 5857
5814 5812 5810 5808 5806 5803 5801 5799 5797 5796 5794 5792 5790 5788 5786 5784 5782 5779 5776 5773 5770 5768 5765 5763 5761 5759 5757 5756 5755 5754 5753 5753 5753 5753 5753 5753 5753 5753 5754 5755 5756 5757 5759 5760 5761 5763 5765 5766 5768 5771 5773 5775 5777 5779 5781 5784 5786 5789 5791 5793 5795 5798 5800 5802 5803 5805 5808 5810 5812 5814 5816 5818 5820 5823 5826 5828 5832 5835 5837 5840 5843 5846 5848 5852 5855
5813 5811 5809 5807 5805 5802 5800 5798 5796 5794 5792 5790 5788 5787 5785 5783 5780 5778 5775 5772 5769 5766 5764 5761 5759 5757 5755 5754 5752 5751 5751 5750 5750 5750 5750 5750 5750 5751 5751 5752 5752 5753 5755 5756 5757 5759 5761 5763 5765 5767 5769 5771 5773 5775 5777 5780 5782 5784 5787 5789 5791 5794 5796 5798 5800 5802 5804 5807 5809 5811 5813 5815 5817 5820 5822 5825 5828 5831 5834 5837 5840 5843 5845 5849 5852
5812 5810 5808 5805 5803 5801 5799 5796 5794 5792 5791 5789 5787 5785 5783 5781 5779 5777 5774 5771 5768 5765 5763 5760 5757 5755 5753 5752 5750 5749 5748 5748 5747 5747 5748 5747 5748 5748 5748 5749 5749 5750 5751 5752 5754 5755 5757 5759 5761 5763 5765 5768 5770 5771 5773 5775 5777 5779 5782 5784 5787 5789 5792 5794 5796 5799 5801 5804 5806 5808 5810 5812 5815 5817 5819 5821 5824 5827 5830 5832 5835 5838 5842 5846 5849
5811 5808 5806 5804 5801 5799 5797 5795 5793 5791 5789 5787 5785 5784 5782 5780 5778 5775 5773 5770 5767 5765 5762 5759 5756 5754 5752 5750 5748 5747 5746 5745 5745 5745 5745 5745 5745 5745 5745 5746 5746 5747 5748 5749 5750 5752 5753 5755 5757 5759 5762 5764 5766 5768 5770 5771 5773 5775 5777 5780 5783 5785 5787 5790 5792 5795 5797 5800 5803 5805 5807 5810 5812 5814 5816 5818 5820 5822 5825 5827 5830 5834 5838 5842 5845
5810 5807 5805 5802 5800 5798 5796 5794 5792 5789 5787 5786 5784 5782 5780 5778 5776 5774 5771 5769 5766 5764 5761 5758 5755 5752 5750 5748 5747 5745 5744 5743 5743 5742 5742 5742 5742 5743 5743 5743 5743 5744 5745 5746 5747 5748 5750 5751 5753 5755 5758 5760 5762 5764 5765 5767 5769 5771 5773 5776 5779 5781 5783 5785 5788 5790 5793 5796 5799 5801 5803 5806 5809 5811 5813 5814 5816 5818 5820 5823 5826 5829 5833 5837 5840
5809 5806 5804 5801 5799 5797 5795 5793 5791 5788 5786 5784 5782 5780 5779 5777 5775 5772 5770 5767 5765 5763 5760 5758 5755 5752 5749 5747 5745 5743 5742 5741 5740 5740 5740 5740 5740 5740 5740 5740 5740 5741 5742 5743 5744 5745 5747 5748 5750 5751 5753 5755 5757 5758 5761 5763 5765 5767 5770 5772 5775 5777 5779 5781 5783 5786 5789 5792 5794 5797 5799 5802 5805 5807 5809 5810 5812 5814 5816 5819 5822 5826 5830 5833 5836
5808 5805 5803 5801 5798 5796 5794 5792 5790 5787 5785 5783 5781 5779 5777 5775 5773 5771 5768 5766 5764 5762 5759 5757 5754 5751 5749 5746 5744 5742 5740 5739 5738 5738 5738 5737 5737 5738 5738 5738 5738 5738 5739 5740 5741 5742 5743 5745 5746 5747 5749 5750 5752 5755 5757 5760 5762 5764 5766 5768 5770 5773 5775 5777 5779 5781 5784 5787 5790 5792 5795 5797 5800 5803 5805 5807 5809 5810 5812 5815 5818 5822 5826 5829 5831
5807 5804 5802 5799 5797 5795 5792 5790 5788 5786 5784 5781 5779 5777 5775 5774 5772 5770 5767 5765 5763 5761 5758 5756 5753 5751 5748 5746 5743 5741 5739 5738 5737 5736 5735 5735 5735 5735 5735 5735 5735 5736 5736 5737 5738 5739 5740 5741 5742 5744 5745 5747 5749 5751 5753 5755 5758 5760 5762 5764 5766 5768 5770 5773 5775 5776 5780 5783 5786 5788 5791 5793 5796 5799 5801 5803 5805 5807 5809 5811 5814 5817 5820 5824 5827
5806 5803 5801 5798 5796 5794 5791 5789 5787 5785 5782 5780 5778 5776 5774 5772 5771 5769 5766 5764 5762 5759 5757 5755 5753 5750 5747 5745 5743 5740 5738 5737 5735 5734 5733 5733 5732 5732 5732 5733 5733 5733 5733 5734 5735 5736 5737 5738 5739 5740 5742 5744 5745 5747 5749 5751 5753 5756 5758 5760 5763 5765 5766 5769 5771 5773 5776 5779 5782 5784 5787 5789 5792 5794 5797 5800 5802 5803 5806 5808 5811 5813 5816 5819 5822
5805 5803 5800 5797 5795 5792 5790 5787 5785 5783 5781 5779 5777 5775 5773 5771 5770 5768 5765 5763 5761 5758 5756 5754 5752 5749 5747 5745 5742 5740 5738 5736 5734 5732 5731 5731 5730 5730 5730 5730 5730 5730 5731 5731 5732 5733 5734 5735 5736 5737 5739 5740 5742 5743 5745 5747 5749 5752 5754 5757 5759 5761 5763 5766 5768 5770 5772 5776 5778 5781 5783 5786 5788 5790 5793 5795 5798 5800 5802 5805 5807 5810 5812 5815 5818
5804 5802 5799 5796 5794 5791 5789 5787 5784 5782 5780 5778 5776 5774 5772 5770 5769 5767 5764 5762 5760 5757 5755 5752 5750 5748 5746 5744 5741 5739 5737 5735 5733 5731 5730 5728 5728 5727 5727 5727 5727 5728 5728 5728 5729 5729 5730 5732 5733 5734 5736 5737 5739 5740 5741 5743 5745 5748 5750 5753 5755 5757 5759 5762 5764 5766 5770 5772 5774 5776 5779 5782 5785 5787 5789 5791 5793 5796 5798 5801 5804 5806 5809 5811 5814
5802 5800 5798 5795 5792 5790 5788 5786 5784 5781 5779 5777 5775 5773 5771 5769 5768 5766 5763 5761 5759 5756 5754 5751 5748 5746 5745 5743 5740 5738 5736 5734 5732 5730 5728 5727 5725 5725 5724 5724 5724 5725 5725 5725 5726 5726 5727 5728 5730 5731 5733 5734 5736 5737 5738 5740 5742 5744 5746 5749 5751 5753 5756 5758 5760 5763 5766 5768 5770 5772 5775 5778 5781 5783 5785 5787 5790 5792 5795 5797 5800 5803 5805 5807 5810
5801 5798 5796 5794 5791 5789 5787 5785 5783 5781 5778 5776 5774 5772 5770 5768 5767 5764 5762 5760 5758 5755 5753 5751 5748 5745 5743 5741 5739 5737 5735 5733 5730 5728 5726 5725 5723 5722 5722 5721 5721 5722 5722 5722 5723 5723 5724 5725 5727 5728 5729 5731 5732 5734 5735 5737 5738 5740 5743 5745 5747 5750 5752 5755 5757 5759 5762 5764 5766 5769 5772 5774 5777 5780 5782 5784 5787 5789 5792 5794 5797 5800 5802 5804 5806
5799 5797 5795 5792 5790 5788 5786 5784 5782 5780 5778 5775 5773 5771 5769 5767 5765 5763 5761 5759 5757 5754 5752 5750 5747 5745 5742 5740 5738 5736 5733 5731 5729 5727 5724 5723 5721 5720 5719 5719 5719 5719 5719 5720 5720 5721 5721 5722 5724 5725 5726 5728 5729 5731 5732 5734 5736 5737 5739 5741 5743 5746 5748 5751 5753 5755 5757 5760 5763 5766 5768 5771 5774 5776 5778 5781 5783 5786 5789 5791 5793 5796 5799 5801 5802